星链-31911 (STARLINK-31911)

导读 | 星芒AI

STARLINK-31911 是 SpaceX Starlink 项目中的一颗低轨卫星,属于第三代星链卫星(v1.5)。它于2023年发射,旨在为全球提供高速互联网服务。该卫星采用先进推进系统和激光通信技术,提高网络效率与稳定性。作为星链星座的一部分,STARLINK-31911 支持偏远地区通信,增强全球网络覆盖,同时推动 SpaceX 在商业航天和卫星互联网领域的领先地位。

基本信息
目录编号:
60587
目录名称:
STARLINK-31911
国际标识:
2024-150E
轨道中心:
EARTH
卫星名称:
星链-31911 (STARLINK-31911)
卫星全名:
星链-31911 (STARLINK-31911)
卫星状态:
在轨 (已飞行487 天)
发射日期:
2024-08-20 UTC
国别 :
美国 (US)
星等 :
--
轨道信息
数据来源 国际轨道数据
星历时间: 2025-12-19T12:24:20+0800
23小时前
查看轨道信息
半长轴: 6853.426km
偏心率: 0.0001321
轨道倾角: 53.163°
近地点辐角 81.930°
升交点赤经 321.107°
平近点角 278.185°
近地点: 474.383km
远地点: 476.195km
周期: 94.107分钟
每日圈数: 15.301755
详细信息
卫星平台:
Starlink v2.0 mini
运营商:
太空探索技术公司
运营商所在国:
美国
制造商(研发单位):
太空探索技术公司
制造商所在国:
美国
使用方式:
暂无
卫星简介
星链(Starlink)计划是由太空探索技术公司(SpaceX)提出的一个巨型低轨卫星互联网星座项目,计划在2019年至2024年间在太空搭建由约1.2万颗卫星组成的“星链”网络,其中1584颗将部署在地球上空550千米处的近地轨道,并从2020年开始工作。该卫星仍在工作。
2D轨道图
3D轨道图
轨道高度分析图
轨道倾角分析图
轨道综合分析图
查看轨道综合分析图